TRA76B EHAM-LIRP

Flight info

Callsign TRA76B
Flight time 1h 44m
Altitude 33000
Route EDUPO Z739 MISGO DCT ASBON DCT TUSUK DCT ULNOK L607 ABUKA DCT KRH DCT NATOR DCT TRA DCT RIPUS DCT GERSA DCT SOSON DCT ODINA DCT SRN DCT ROBAS DCT OSBUL Y651 MIVKI
Aircraft A21N/M-SDE2E3FGHIRWXY/LB1

Departure

Time 2026-04-27 11:46
Airport Amsterdam Airport Schiphol (EHAM)

Arrival

Time 2026-04-27 13:30
Airport Pisa International Airport (LIRP)
Time Latitude Longitude Altitude Speed Heading
2026-04-27 11:10 52.30900 4.77238 -1 ft 0 kts
2026-04-27 11:25 52.30878 4.77238 -1 ft 4 kts 353°
2026-04-27 11:26 52.30854 4.77242 -1 ft 4 kts 32°
2026-04-27 11:26 52.30843 4.77217 -1 ft 4 kts 76°
2026-04-27 11:26 52.30841 4.77203 -1 ft 0 kts 74°
2026-04-27 11:30 52.30841 4.77212 -1 ft 3 kts 81°
2026-04-27 11:30 52.30840 4.77303 -1 ft 13 kts 94°
2026-04-27 11:30 52.30834 4.77465 -1 ft 14 kts 93°
2026-04-27 11:31 52.30857 4.77590 -1 ft 13 kts 38°
2026-04-27 11:31 52.30964 4.77616 -1 ft 19 kts
2026-04-27 11:31 52.31103 4.77628 -1 ft 20 kts
2026-04-27 11:31 52.31235 4.77640 -1 ft 19 kts
2026-04-27 11:32 52.31361 4.77650 -1 ft 18 kts
2026-04-27 11:32 52.31473 4.77613 -1 ft 16 kts 326°
2026-04-27 11:32 52.31551 4.77487 -1 ft 15 kts 306°
2026-04-27 11:32 52.31575 4.77310 -1 ft 20 kts 269°
2026-04-27 11:33 52.31568 4.77085 -1 ft 19 kts 266°
2026-04-27 11:33 52.31560 4.76874 -1 ft 18 kts 266°
2026-04-27 11:33 52.31553 4.76671 -1 ft 19 kts 266°
2026-04-27 11:33 52.31546 4.76449 -1 ft 19 kts 266°
2026-04-27 11:34 52.31538 4.76237 -1 ft 18 kts 266°
2026-04-27 11:34 52.31531 4.76040 -1 ft 17 kts 266°
2026-04-27 11:34 52.31524 4.75857 -1 ft 15 kts 267°
2026-04-27 11:34 52.31519 4.75694 -1 ft 14 kts 267°
2026-04-27 11:35 52.31515 4.75542 -1 ft 13 kts 267°
2026-04-27 11:35 52.31510 4.75406 -1 ft 12 kts 267°
2026-04-27 11:35 52.31504 4.75292 -1 ft 9 kts 274°
2026-04-27 11:35 52.31500 4.75106 -1 ft 20 kts 266°
2026-04-27 11:36 52.31492 4.74899 -1 ft 17 kts 266°
2026-04-27 11:36 52.31487 4.74716 -1 ft 15 kts 267°
2026-04-27 11:36 52.31481 4.74549 -1 ft 14 kts 266°
2026-04-27 11:36 52.31475 4.74399 -1 ft 13 kts 268°
2026-04-27 11:37 52.31519 4.74302 -1 ft 11 kts 344°
2026-04-27 11:37 52.31613 4.74305 -1 ft 15 kts
2026-04-27 11:37 52.31715 4.74313 -1 ft 14 kts
2026-04-27 11:37 52.31812 4.74322 -1 ft 14 kts
2026-04-27 11:38 52.31903 4.74329 -1 ft 13 kts
2026-04-27 11:38 52.31988 4.74327 -1 ft 12 kts 343°
2026-04-27 11:38 52.32030 4.74212 -1 ft 13 kts 276°
2026-04-27 11:38 52.32036 4.74055 -2 ft 14 kts 273°
2026-04-27 11:39 52.32041 4.73903 -2 ft 12 kts 273°
2026-04-27 11:39 52.32045 4.73778 -1 ft 10 kts 274°
2026-04-27 11:39 52.32050 4.73627 -1 ft 16 kts 273°
2026-04-27 11:39 52.32061 4.73445 -1 ft 16 kts 284°
2026-04-27 11:40 52.32129 4.73305 -1 ft 16 kts 320°
2026-04-27 11:40 52.32213 4.73184 -1 ft 16 kts 318°
2026-04-27 11:40 52.32293 4.73068 -1 ft 15 kts 318°
2026-04-27 11:40 52.32367 4.72960 -1 ft 14 kts 318°
2026-04-27 11:41 52.32436 4.72864 -1 ft 12 kts 321°
2026-04-27 11:41 52.32505 4.72769 -1 ft 14 kts 319°
2026-04-27 11:41 52.32587 4.72652 -1 ft 17 kts 319°
2026-04-27 11:41 52.32681 4.72514 -1 ft 18 kts 315°
2026-04-27 11:42 52.32764 4.72362 -1 ft 17 kts 311°
2026-04-27 11:42 52.32841 4.72219 -1 ft 16 kts 311°
2026-04-27 11:42 52.32921 4.72071 -1 ft 19 kts 311°
2026-04-27 11:42 52.33004 4.71917 -1 ft 18 kts 311°
2026-04-27 11:43 52.33083 4.71773 -1 ft 16 kts 311°
2026-04-27 11:43 52.33144 4.71641 -1 ft 14 kts 290°
2026-04-27 11:43 52.33135 4.71499 -1 ft 12 kts 252°
2026-04-27 11:43 52.33155 4.71385 -1 ft 10 kts 307°
2026-04-27 11:44 52.33194 4.71309 -1 ft 9 kts 311°
2026-04-27 11:44 52.33238 4.71228 -1 ft 10 kts 311°
2026-04-27 11:44 52.33285 4.71141 -1 ft 12 kts 311°
2026-04-27 11:44 52.33353 4.71016 -2 ft 17 kts 314°
2026-04-27 11:45 52.33488 4.70949 -2 ft 30 kts
2026-04-27 11:45 52.33723 4.70963 0 ft 74 kts
2026-04-27 11:45 52.34752 4.71063 -1 ft 145 kts
2026-04-27 11:45 52.35863 4.71167 272 ft 161 kts
2026-04-27 11:46 52.36965 4.71254 1001 ft 156 kts
2026-04-27 11:46 52.38026 4.71345 1428 ft 167 kts
2026-04-27 11:46 52.39246 4.71462 1720 ft 185 kts
2026-04-27 11:46 52.40589 4.71603 1963 ft 203 kts
2026-04-27 11:47 52.42081 4.71861 2115 ft 230 kts 18°
2026-04-27 11:47 52.43563 4.73085 2518 ft 247 kts 31°
2026-04-27 11:47 52.45060 4.74540 3231 ft 252 kts 30°
2026-04-27 11:47 52.46548 4.76145 3967 ft 258 kts 42°
2026-04-27 11:48 52.47583 4.78242 4679 ft 263 kts 59°
2026-04-27 11:48 52.48205 4.81000 5381 ft 269 kts 78°
2026-04-27 11:48 52.48368 4.84073 6161 ft 272 kts 84°
2026-04-27 11:48 52.48467 4.87178 6945 ft 274 kts 92°
2026-04-27 11:49 52.48067 4.90244 7661 ft 277 kts 111°
2026-04-27 11:49 52.47113 4.93018 8315 ft 284 kts 128°
2026-04-27 11:49 52.45656 4.95232 8970 ft 287 kts 145°
2026-04-27 11:49 52.44012 4.97111 9666 ft 291 kts 146°
2026-04-27 11:50 52.42328 4.99025 10301 ft 296 kts 146°
2026-04-27 11:50 52.40604 5.00992 10635 ft 312 kts 146°
2026-04-27 11:50 52.38758 5.03101 10766 ft 334 kts 146°
2026-04-27 11:50 52.36803 5.05344 10968 ft 351 kts 146°
2026-04-27 11:51 52.34786 5.07672 11448 ft 358 kts 146°
2026-04-27 11:51 52.32871 5.10316 12056 ft 363 kts 135°
2026-04-27 11:51 52.29471 5.16508 13367 ft 369 kts 133°
2026-04-27 11:52 52.27749 5.19638 14002 ft 372 kts 134°
2026-04-27 11:52 52.26025 5.22760 14568 ft 376 kts 134°
2026-04-27 11:52 52.24271 5.26033 15121 ft 382 kts 129°
2026-04-27 11:52 52.22723 5.29571 15664 ft 386 kts 127°
2026-04-27 11:53 52.21165 5.33180 16212 ft 391 kts 127°
2026-04-27 11:53 52.19591 5.36815 16757 ft 395 kts 127°
2026-04-27 11:53 52.17992 5.40492 17297 ft 399 kts 127°
2026-04-27 11:53 52.16545 5.43814 17786 ft 403 kts 127°
2026-04-27 11:54 52.14909 5.47560 18255 ft 409 kts 127°
2026-04-27 11:54 52.13244 5.51362 18696 ft 415 kts 127°
2026-04-27 11:54 52.11565 5.55196 19140 ft 418 kts 127°
2026-04-27 11:54 52.09867 5.59077 19597 ft 422 kts 127°
2026-04-27 11:55 52.08160 5.62974 20035 ft 425 kts 127°
2026-04-27 11:55 52.06434 5.66888 20487 ft 428 kts 129°
2026-04-27 11:55 52.04528 5.70609 20925 ft 430 kts 133°
2026-04-27 11:55 52.02571 5.74274 21379 ft 433 kts 133°
2026-04-27 11:56 52.00608 5.77930 21805 ft 435 kts 134°
2026-04-27 11:56 51.98702 5.81467 22190 ft 438 kts 134°
2026-04-27 11:56 51.96715 5.85150 22591 ft 441 kts 134°
2026-04-27 11:56 51.94694 5.88907 22988 ft 444 kts 134°
2026-04-27 11:57 51.92665 5.92695 23363 ft 447 kts 134°
2026-04-27 11:57 51.90615 5.96523 23741 ft 450 kts 134°
2026-04-27 11:57 51.88554 6.00358 24081 ft 453 kts 134°
2026-04-27 11:57 51.86481 6.04213 24428 ft 455 kts 134°
2026-04-27 11:58 51.84401 6.08077 24752 ft 457 kts 134°
2026-04-27 11:58 51.82303 6.11950 25074 ft 459 kts 134°
2026-04-27 11:58 51.80190 6.15824 25392 ft 461 kts 135°
2026-04-27 11:58 51.78060 6.19718 25703 ft 463 kts 135°
2026-04-27 11:59 51.75921 6.23622 26013 ft 465 kts 135°
2026-04-27 11:59 51.73773 6.27538 26317 ft 468 kts 135°
2026-04-27 11:59 51.71609 6.31475 26625 ft 470 kts 135°
2026-04-27 11:59 51.69435 6.35430 26933 ft 472 kts 135°
2026-04-27 12:00 51.67251 6.39398 27233 ft 474 kts 135°
2026-04-27 12:00 51.65055 6.43376 27520 ft 476 kts 135°
2026-04-27 12:00 51.63024 6.47052 27758 ft 478 kts 135°
2026-04-27 12:00 51.60812 6.51056 28046 ft 480 kts 135°
2026-04-27 12:01 51.58619 6.55025 28327 ft 482 kts 135°
2026-04-27 12:01 51.56749 6.58405 28554 ft 484 kts 135°
2026-04-27 12:01 51.54507 6.62451 28848 ft 486 kts 135°
2026-04-27 12:01 51.53048 6.65081 29047 ft 488 kts 135°
2026-04-27 12:02 51.50743 6.69223 29354 ft 490 kts 135°
2026-04-27 12:02 51.47694 6.74681 29790 ft 492 kts 135°
2026-04-27 12:02 51.46185 6.77377 30085 ft 491 kts 135°
2026-04-27 12:02 51.44121 6.81064 30455 ft 490 kts 135°
2026-04-27 12:03 51.41820 6.85089 30806 ft 487 kts 139°
2026-04-27 12:03 51.39282 6.88634 31160 ft 481 kts 148°
2026-04-27 12:03 51.36516 6.91583 31497 ft 477 kts 152°
2026-04-27 12:03 51.33717 6.94389 31862 ft 475 kts 152°
2026-04-27 12:04 51.30917 6.97198 32246 ft 474 kts 153°
2026-04-27 12:04 51.28126 6.99999 32622 ft 473 kts 152°
2026-04-27 12:04 51.25339 7.02800 32988 ft 472 kts 152°
2026-04-27 12:04 51.22569 7.05585 33360 ft 471 kts 152°
2026-04-27 12:05 51.19800 7.08366 33729 ft 470 kts 153°
2026-04-27 12:05 51.17030 7.11137 34086 ft 469 kts 153°
2026-04-27 12:05 51.14267 7.13897 34381 ft 468 kts 153°
2026-04-27 12:05 51.11507 7.16646 34603 ft 469 kts 153°
2026-04-27 12:06 51.08742 7.19394 34834 ft 469 kts 153°
2026-04-27 12:06 51.05979 7.22139 35068 ft 469 kts 153°
2026-04-27 12:06 51.03214 7.24878 35217 ft 469 kts 153°
2026-04-27 12:07 50.97692 7.30339 35257 ft 466 kts 153°
2026-04-27 12:07 50.92205 7.35770 35252 ft 465 kts 153°
2026-04-27 12:08 50.86705 7.41181 35249 ft 465 kts 153°
2026-04-27 12:08 50.81203 7.46572 35244 ft 465 kts 153°
2026-04-27 12:09 50.75712 7.51949 35239 ft 464 kts 153°
2026-04-27 12:09 50.70219 7.57334 35234 ft 465 kts 152°
2026-04-27 12:10 50.64794 7.62932 35234 ft 467 kts 150°
2026-04-27 12:10 50.59624 7.68395 35222 ft 467 kts 150°
2026-04-27 12:11 50.54219 7.74033 35227 ft 466 kts 151°
2026-04-27 12:11 50.48785 7.79605 35228 ft 466 kts 151°
2026-04-27 12:12 50.44413 7.84064 35224 ft 466 kts 151°
2026-04-27 12:12 50.38978 7.89621 35235 ft 466 kts 151°
2026-04-27 12:13 50.33541 7.95167 35215 ft 467 kts 151°
2026-04-27 12:13 50.28099 8.00702 35205 ft 467 kts 151°
2026-04-27 12:14 50.22659 8.06213 35189 ft 466 kts 151°
2026-04-27 12:14 50.18712 8.10678 35174 ft 467 kts 149°
2026-04-27 12:15 50.13279 8.16166 35135 ft 465 kts 154°
2026-04-27 12:15 50.07660 8.21130 35137 ft 464 kts 155°
2026-04-27 12:16 50.02034 8.26061 35147 ft 465 kts 154°
2026-04-27 12:16 49.96491 8.31132 35149 ft 466 kts 154°
2026-04-27 12:17 49.90928 8.36313 35218 ft 466 kts 153°
2026-04-27 12:17 49.85392 8.41588 35203 ft 469 kts 147°
2026-04-27 12:18 49.80486 8.48325 35208 ft 473 kts 140°
2026-04-27 12:18 49.75671 8.55268 35212 ft 472 kts 144°
2026-04-27 12:19 49.70162 8.60518 35211 ft 461 kts 162°
2026-04-27 12:19 49.64061 8.63057 35194 ft 452 kts 175°
2026-04-27 12:20 49.57863 8.64753 35200 ft 453 kts 175°
2026-04-27 12:20 49.51663 8.66483 35205 ft 453 kts 175°
2026-04-27 12:21 49.45454 8.67543 35206 ft 444 kts 187°
2026-04-27 12:21 49.39363 8.66462 35192 ft 440 kts 193°
2026-04-27 12:22 49.33291 8.65216 35196 ft 440 kts 193°
2026-04-27 12:22 49.27213 8.63995 35199 ft 441 kts 192°
2026-04-27 12:23 49.21131 8.62789 35199 ft 441 kts 192°
2026-04-27 12:23 49.15040 8.61578 35179 ft 441 kts 192°
2026-04-27 12:24 49.08951 8.60357 35184 ft 442 kts 192°
2026-04-27 12:24 49.02853 8.59137 35186 ft 442 kts 192°
2026-04-27 12:25 48.96766 8.57805 35173 ft 440 kts 195°
2026-04-27 12:25 48.90787 8.55890 35170 ft 439 kts 198°
2026-04-27 12:26 48.84831 8.53778 35175 ft 439 kts 198°
2026-04-27 12:26 48.79188 8.51878 35175 ft 440 kts 197°
2026-04-27 12:27 48.73201 8.49964 35162 ft 440 kts 197°
2026-04-27 12:27 48.67205 8.48062 35169 ft 440 kts 197°
2026-04-27 12:28 48.61212 8.46154 35177 ft 440 kts 197°
2026-04-27 12:28 48.55215 8.44236 35175 ft 440 kts 197°
2026-04-27 12:29 48.49225 8.42323 35176 ft 440 kts 197°
2026-04-27 12:29 48.43229 8.40414 35174 ft 440 kts 197°
2026-04-27 12:30 48.37225 8.38516 35173 ft 441 kts 197°
2026-04-27 12:30 48.31234 8.36613 35160 ft 441 kts 196°
2026-04-27 12:31 48.25234 8.34715 35163 ft 441 kts 196°
2026-04-27 12:31 48.19222 8.32893 35163 ft 443 kts 192°
2026-04-27 12:32 48.13016 8.33080 35153 ft 453 kts 174°
2026-04-27 12:32 48.06792 8.34613 35154 ft 453 kts 175°
2026-04-27 12:33 48.00573 8.36123 35158 ft 453 kts 175°
2026-04-27 12:33 47.94346 8.37607 35157 ft 453 kts 175°
2026-04-27 12:34 47.88156 8.39099 35144 ft 453 kts 174°
2026-04-27 12:34 47.81929 8.40602 35148 ft 454 kts 174°
2026-04-27 12:35 47.75699 8.42103 35156 ft 454 kts 175°
2026-04-27 12:35 47.69466 8.43578 35152 ft 454 kts 174°
2026-04-27 12:36 47.63215 8.44753 35143 ft 453 kts 178°
2026-04-27 12:36 47.56947 8.45569 35146 ft 452 kts 179°
2026-04-27 12:37 47.50671 8.46379 35150 ft 453 kts 178°
2026-04-27 12:37 47.44400 8.47291 35138 ft 453 kts 177°
2026-04-27 12:38 47.38115 8.48231 35148 ft 454 kts 177°
2026-04-27 12:38 47.31840 8.49157 35149 ft 454 kts 178°
2026-04-27 12:39 47.25557 8.50071 35144 ft 454 kts 177°
2026-04-27 12:39 47.19263 8.50982 35149 ft 454 kts 177°
2026-04-27 12:40 47.12979 8.51894 35148 ft 454 kts 177°
2026-04-27 12:40 47.06684 8.52808 35143 ft 454 kts 177°
2026-04-27 12:41 47.00398 8.53714 35129 ft 454 kts 177°
2026-04-27 12:41 46.94118 8.54616 35147 ft 454 kts 177°
2026-04-27 12:42 46.87830 8.55520 35135 ft 454 kts 177°
2026-04-27 12:42 46.81533 8.56430 35130 ft 454 kts 177°
2026-04-27 12:43 46.75245 8.57339 35138 ft 454 kts 176°
2026-04-27 12:43 46.68959 8.58237 35134 ft 455 kts 176°
2026-04-27 12:44 46.62653 8.59127 35116 ft 455 kts 176°
2026-04-27 12:44 46.56375 8.60018 35113 ft 456 kts 176°
2026-04-27 12:45 46.50066 8.60921 35111 ft 456 kts 176°
2026-04-27 12:45 46.43752 8.61814 35121 ft 456 kts 176°
2026-04-27 12:46 46.37424 8.62702 35102 ft 456 kts 176°
2026-04-27 12:46 46.31099 8.63592 35083 ft 457 kts 176°
2026-04-27 12:47 46.24783 8.64484 35072 ft 456 kts 176°
2026-04-27 12:47 46.19520 8.65222 35073 ft 457 kts 176°
2026-04-27 12:48 46.13199 8.66183 35069 ft 458 kts 171°
2026-04-27 12:48 46.07156 8.69064 35059 ft 460 kts 153°
2026-04-27 12:49 46.01527 8.73490 35095 ft 461 kts 152°
2026-04-27 12:49 45.95883 8.77903 35099 ft 462 kts 152°
2026-04-27 12:50 45.90410 8.82149 35088 ft 462 kts 152°
2026-04-27 12:50 45.84767 8.86539 35100 ft 462 kts 152°
2026-04-27 12:51 45.79117 8.90935 35090 ft 462 kts 152°
2026-04-27 12:51 45.73466 8.95305 35095 ft 461 kts 152°
2026-04-27 12:52 45.68308 8.99283 35096 ft 461 kts 152°
2026-04-27 12:52 45.63105 9.04591 35101 ft 460 kts 135°
2026-04-27 12:53 45.56669 9.14665 35093 ft 460 kts 131°
2026-04-27 12:53 45.52318 9.21472 35095 ft 460 kts 131°
2026-04-27 12:54 45.48003 9.28208 35095 ft 461 kts 131°
2026-04-27 12:54 45.43684 9.34947 35100 ft 461 kts 131°
2026-04-27 12:55 45.39360 9.41688 35160 ft 461 kts 131°
2026-04-27 12:55 45.35038 9.48402 35145 ft 460 kts 131°
2026-04-27 12:56 45.30709 9.55097 35128 ft 460 kts 132°
2026-04-27 12:56 45.26409 9.61734 35111 ft 460 kts 131°
2026-04-27 12:57 45.22081 9.68415 35102 ft 460 kts 132°
2026-04-27 12:57 45.17747 9.75084 35089 ft 460 kts 132°
2026-04-27 12:58 45.13392 9.81792 35094 ft 459 kts 132°
2026-04-27 12:58 45.09096 9.88398 35097 ft 459 kts 132°
2026-04-27 12:59 45.04764 9.95031 35097 ft 459 kts 132°
2026-04-27 12:59 45.00438 10.01653 35103 ft 459 kts 132°
2026-04-27 13:00 44.96100 10.08273 35100 ft 459 kts 132°
2026-04-27 13:00 44.91759 10.14880 35097 ft 459 kts 132°
2026-04-27 13:01 44.87302 10.21314 35100 ft 459 kts 141°
2026-04-27 13:01 44.84662 10.23808 35101 ft 458 kts 153°
2026-04-27 13:01 44.81730 10.25520 35086 ft 456 kts 165°
2026-04-27 13:02 44.78627 10.26375 35089 ft 455 kts 176°
2026-04-27 13:02 44.75467 10.26378 35083 ft 454 kts 188°
2026-04-27 13:02 44.69346 10.24336 35086 ft 453 kts 197°
2026-04-27 13:03 44.66314 10.23148 34812 ft 450 kts 197°
2026-04-27 13:03 44.63300 10.21978 33730 ft 450 kts 197°
2026-04-27 13:03 44.60268 10.20807 32495 ft 452 kts 197°
2026-04-27 13:03 44.57238 10.19642 31518 ft 449 kts 197°
2026-04-27 13:04 44.54249 10.18496 30663 ft 444 kts 197°
2026-04-27 13:04 44.51282 10.17360 29774 ft 438 kts 196°
2026-04-27 13:04 44.48370 10.16245 28855 ft 432 kts 196°
2026-04-27 13:04 44.45473 10.15160 27972 ft 426 kts 196°
2026-04-27 13:05 44.42626 10.14134 27106 ft 420 kts 195°
2026-04-27 13:05 44.39809 10.13144 26296 ft 415 kts 195°
2026-04-27 13:05 44.37019 10.12178 25814 ft 412 kts 195°
2026-04-27 13:05 44.34246 10.11219 25339 ft 408 kts 195°
2026-04-27 13:06 44.31506 10.10265 24870 ft 405 kts 195°
2026-04-27 13:06 44.28778 10.09309 24421 ft 402 kts 195°
2026-04-27 13:06 44.26076 10.08361 23964 ft 399 kts 194°
2026-04-27 13:06 44.23562 10.07788 23534 ft 397 kts 185°
2026-04-27 13:07 44.20826 10.07843 23083 ft 392 kts 174°
2026-04-27 13:07 44.18163 10.08566 22662 ft 388 kts 166°
2026-04-27 13:07 44.15570 10.09504 22230 ft 383 kts 166°
2026-04-27 13:07 44.13007 10.10421 21811 ft 378 kts 167°
2026-04-27 13:08 44.10466 10.11324 21382 ft 375 kts 167°
2026-04-27 13:08 44.07945 10.12216 20961 ft 372 kts 167°
2026-04-27 13:08 44.05450 10.13104 20525 ft 370 kts 167°
2026-04-27 13:08 44.03016 10.13987 20110 ft 367 kts 166°
2026-04-27 13:09 44.00499 10.14915 19660 ft 366 kts 166°
2026-04-27 13:09 43.98043 10.15825 19193 ft 365 kts 166°
2026-04-27 13:09 43.95619 10.16712 18738 ft 365 kts 168°
2026-04-27 13:09 43.93114 10.17090 18243 ft 362 kts 183°
2026-04-27 13:10 43.90647 10.16590 17772 ft 357 kts 198°
2026-04-27 13:10 43.88375 10.15281 17315 ft 351 kts 212°
2026-04-27 13:10 43.86432 10.13277 16864 ft 347 kts 225°
2026-04-27 13:10 43.84788 10.10831 16272 ft 348 kts 229°
2026-04-27 13:11 43.83298 10.08213 15814 ft 345 kts 239°
2026-04-27 13:11 43.82027 10.05373 15452 ft 347 kts 239°
2026-04-27 13:11 43.80755 10.02535 15067 ft 347 kts 239°
2026-04-27 13:11 43.79416 9.99778 14685 ft 346 kts 231°
2026-04-27 13:12 43.77717 9.97433 14306 ft 344 kts 218°
2026-04-27 13:12 43.75774 9.95599 14178 ft 332 kts 206°
2026-04-27 13:12 43.73608 9.94756 14060 ft 320 kts 182°
2026-04-27 13:12 43.71458 9.95227 13798 ft 312 kts 156°
2026-04-27 13:13 43.69715 9.96914 13489 ft 306 kts 130°
2026-04-27 13:13 43.68424 9.99248 13209 ft 305 kts 126°
2026-04-27 13:13 43.67168 10.01605 12894 ft 304 kts 126°
2026-04-27 13:13 43.65911 10.03958 12605 ft 303 kts 126°
2026-04-27 13:14 43.64657 10.06288 12346 ft 302 kts 126°
2026-04-27 13:14 43.63404 10.08611 12090 ft 301 kts 126°
2026-04-27 13:14 43.62161 10.10912 11861 ft 295 kts 126°
2026-04-27 13:14 43.60945 10.13160 11577 ft 290 kts 126°
2026-04-27 13:15 43.59743 10.15380 11313 ft 287 kts 126°
2026-04-27 13:15 43.58553 10.17577 11078 ft 285 kts 126°
2026-04-27 13:15 43.57369 10.19759 10833 ft 284 kts 127°
2026-04-27 13:15 43.56185 10.21938 10588 ft 282 kts 126°
2026-04-27 13:16 43.55009 10.24102 10339 ft 282 kts 127°
2026-04-27 13:16 43.53840 10.26260 10092 ft 281 kts 126°
2026-04-27 13:16 43.52674 10.28410 9816 ft 280 kts 127°
2026-04-27 13:16 43.51514 10.30547 9594 ft 274 kts 127°
2026-04-27 13:17 43.50392 10.32625 9495 ft 268 kts 124°
2026-04-27 13:17 43.49723 10.34936 9382 ft 265 kts 93°
2026-04-27 13:17 43.50095 10.37377 9193 ft 264 kts 58°
2026-04-27 13:17 43.51363 10.39153 8959 ft 263 kts 36°
2026-04-27 13:18 43.52819 10.40641 8733 ft 256 kts 36°
2026-04-27 13:18 43.54227 10.42069 8486 ft 252 kts 36°
2026-04-27 13:18 43.55645 10.43512 8276 ft 251 kts 36°
2026-04-27 13:18 43.57049 10.44946 8088 ft 250 kts 36°
2026-04-27 13:19 43.58444 10.46375 7894 ft 250 kts 36°
2026-04-27 13:19 43.59835 10.47806 7666 ft 249 kts 36°
2026-04-27 13:19 43.61239 10.49214 7449 ft 248 kts 30°
2026-04-27 13:19 43.62817 10.50124 7264 ft 245 kts 12°
2026-04-27 13:20 43.64455 10.50558 7058 ft 234 kts
2026-04-27 13:20 43.66028 10.50965 6877 ft 227 kts 10°
2026-04-27 13:20 43.67566 10.51365 6713 ft 224 kts
2026-04-27 13:20 43.69097 10.51763 6539 ft 223 kts
2026-04-27 13:21 43.70620 10.52162 6330 ft 222 kts
2026-04-27 13:21 43.72142 10.52564 6150 ft 222 kts
2026-04-27 13:21 43.73636 10.52960 5667 ft 219 kts 10°
2026-04-27 13:21 43.75124 10.53355 5236 ft 216 kts
2026-04-27 13:22 43.76590 10.53741 4763 ft 214 kts
2026-04-27 13:22 43.78045 10.54123 4229 ft 213 kts
2026-04-27 13:22 43.79497 10.54500 3725 ft 212 kts
2026-04-27 13:22 43.80947 10.54881 3575 ft 212 kts
2026-04-27 13:23 43.82393 10.55263 3585 ft 209 kts
2026-04-27 13:23 43.83769 10.55625 3592 ft 196 kts
2026-04-27 13:23 43.85096 10.55974 3591 ft 193 kts
2026-04-27 13:23 43.86418 10.56324 3589 ft 193 kts
2026-04-27 13:24 43.87739 10.56672 3595 ft 193 kts
2026-04-27 13:24 43.89053 10.56678 3593 ft 188 kts 335°
2026-04-27 13:24 43.89923 10.55465 3604 ft 183 kts 287°
2026-04-27 13:24 43.89798 10.53825 3592 ft 169 kts 235°
2026-04-27 13:25 43.88865 10.52969 3597 ft 158 kts 204°
2026-04-27 13:25 43.87862 10.52407 3606 ft 158 kts 204°
2026-04-27 13:25 43.86843 10.51837 3603 ft 158 kts 203°
2026-04-27 13:25 43.85825 10.51268 3592 ft 158 kts 203°
2026-04-27 13:26 43.84803 10.50696 3599 ft 158 kts 204°
2026-04-27 13:26 43.83824 10.50026 3603 ft 156 kts 213°
2026-04-27 13:26 43.82847 10.49343 3417 ft 159 kts 205°
2026-04-27 13:26 43.81839 10.48739 3143 ft 156 kts 205°
2026-04-27 13:27 43.80846 10.48118 2900 ft 157 kts 205°
2026-04-27 13:27 43.79862 10.47499 2648 ft 156 kts 205°
2026-04-27 13:27 43.78883 10.46881 2407 ft 153 kts 207°
2026-04-27 13:27 43.77919 10.46244 2146 ft 153 kts 208°
2026-04-27 13:28 43.76973 10.45586 1920 ft 150 kts 208°
2026-04-27 13:28 43.76038 10.44932 1709 ft 150 kts 208°
2026-04-27 13:28 43.75066 10.44341 1360 ft 153 kts 202°
2026-04-27 13:28 43.74057 10.43896 1147 ft 153 kts 202°
2026-04-27 13:29 43.73043 10.43507 984 ft 153 kts 197°
2026-04-27 13:29 43.72024 10.43091 754 ft 152 kts 207°
2026-04-27 13:29 43.71132 10.42380 585 ft 148 kts 219°
2026-04-27 13:29 43.70344 10.41492 358 ft 146 kts 223°
2026-04-27 13:30 43.69533 10.40620 92 ft 147 kts 220°
2026-04-27 13:30 43.68758 10.39800 19 ft 130 kts 216°
2026-04-27 13:30 43.68198 10.39237 17 ft 71 kts 216°
2026-04-27 13:30 43.67919 10.38951 16 ft 44 kts 218°
2026-04-27 13:31 43.67719 10.38749 18 ft 30 kts 216°
2026-04-27 13:31 43.67577 10.38607 19 ft 18 kts 216°
2026-04-27 13:31 43.67546 10.38477 17 ft 16 kts 300°
2026-04-27 13:31 43.67589 10.38396 16 ft 0 kts 305°
2026-04-27 13:32 43.67594 10.38386 15 ft 2 kts 305°
2026-04-27 13:32 43.67606 10.38362 13 ft 4 kts 305°
2026-04-27 13:32 43.67625 10.38328 14 ft 5 kts 307°
2026-04-27 13:32 43.67648 10.38286 13 ft 6 kts 307°
2026-04-27 13:33 43.67673 10.38241 14 ft 6 kts 308°
2026-04-27 13:33 43.67698 10.38198 14 ft 6 kts 309°
2026-04-27 13:33 43.67729 10.38150 15 ft 8 kts 319°
2026-04-27 13:33 43.67806 10.38130 15 ft 13 kts 14°
2026-04-27 13:34 43.67885 10.38185 15 ft 12 kts 34°
2026-04-27 13:34 43.67928 10.38231 15 ft 11 kts 38°
2026-04-27 13:34 43.67988 10.38291 17 ft 10 kts 36°
2026-04-27 13:34 43.68056 10.38362 15 ft 8 kts 37°
2026-04-27 13:35 43.68099 10.38406 15 ft 8 kts 37°
2026-04-27 13:35 43.68167 10.38476 15 ft 17 kts 37°
2026-04-27 13:35 43.68235 10.38547 15 ft 18 kts 37°
2026-04-27 13:35 43.68345 10.38661 15 ft 13 kts 43°
2026-04-27 13:36 43.68344 10.38738 16 ft 13 kts 119°
2026-04-27 13:36 43.68333 10.38884 15 ft 14 kts 32°
2026-04-27 13:36 43.68404 10.38891 15 ft 17 kts 353°
2026-04-27 13:36 43.68521 10.38893 15 ft 17 kts 27°
2026-04-27 13:37 43.68628 10.38991 15 ft 15 kts 11°
2026-04-27 13:37 43.68696 10.38920 15 ft 13 kts 316°
2026-04-27 13:37 43.68760 10.38820 15 ft 15 kts 312°
2026-04-27 13:37 43.68822 10.38701 15 ft 11 kts 298°
2026-04-27 13:38 43.68852 10.38657 15 ft 0 kts 343°
2026-04-27 13:39 43.69619 10.39688 15 ft 0 kts 324°